Location: D�pe
(52.6057°N, 8.1808°E)
Time: 14:08:49
(UTC+00:00)

Cosmos 1777 Rocket - Pass Details

Date: 29 October 2020
Orbit: 759 x 775 km, 74.0° (Epoch: 28 November)

Event Time Altitude Azimuth Distance (km) Brightness Sun altitude
Rises 18:29:58 0° 334° (NNW) 3,231 7.7 -22.9°
Reaches altitude 10° 18:32:21 10° 335° (NNW) 2,302 6.9 -23.2°
Maximum altitude 18:37:35 86° 65° (ENE) 770 3.8 -24.0°
Enters shadow 18:38:39 58° 149° (SSE) 887 4.0 -24.2°
